Location: Fort Wayne
(41.1310°N, 85.1290°W)
Time: 03:05:19
(UTC-04:00)

OPAL - Visible Passes

Search period start: 06 July 2015 00:00
Search period end: 16 July 2015 00:00
Orbit: 743 x 796 km, 100.2° (Epoch: 06 July)

Date Brightness Start Highest point End Pass type
(mag) Time Alt. Az. Time Alt. Az. Time Alt. Az.
06 Jul 7.7 22:06:31 10° NNE 22:11:19 48° ESE 22:16:06 10° S visible
06 Jul 9.9 23:46:13 10° NNW 23:49:55 21° WNW 23:53:27 10° WSW visible
07 Jul 8.6 23:10:06 10° N 23:14:48 42° WNW 23:19:26 10° SW visible
08 Jul 7.4 22:34:31 10° NNE 22:39:31 88° ESE 22:44:29 10° SSW visible
09 Jul 10.3 00:15:46 10° NW 00:17:47 12° WNW 00:19:33 10° W visible
09 Jul 8.0 21:59:26 10° NNE 22:04:04 39° E 22:08:41 10° S visible
09 Jul 9.6 23:38:45 10° N 23:42:48 25° WNW 23:46:43 10° WSW visible
10 Jul 8.2 23:02:48 10° N 23:07:38 52° WNW 23:12:25 10° SW visible
11 Jul 7.4 22:27:21 10° NNE 22:32:19 71° ESE 22:37:15 10° S visible
12 Jul 10.2 00:07:54 10° NNW 00:10:42 15° WNW 00:13:17 10° W visible
12 Jul 8.2 21:52:25 10° NE 21:56:47 31° E 22:01:13 10° SSE visible
12 Jul 9.3 23:31:21 10° N 23:35:39 30° WNW 23:39:53 10° SW visible
13 Jul 7.8 22:55:32 10° N 23:00:28 65° WNW 23:05:21 10° SSW visible
14 Jul 7.5 22:20:12 10° NNE 22:25:05 57° ESE 22:29:58 10° S visible
15 Jul 10.0 00:00:15 10° NNW 00:03:36 18° WNW 00:06:47 10° WSW visible
15 Jul 8.5 21:45:27 10° NE 21:49:30 26° E 21:53:39 10° SSE visible
15 Jul 8.9 23:23:58 10° N 23:28:31 36° WNW 23:33:00 10° SW visible
